sat.trackr.live / text

‹ back to catalog

KUIPER-00040

NORAD 64501 · 2025-134B

PAYLOAD ACTIVE UNKNOWN

§ Identity

Operator
Country
US
Launch date
2025-06-23
Launch site
AFETR
Launch vehicle
Mass (kg)
RCS (m²)

External: N2YO · Heavens-Above · Gunter

§ Orbital elements

Epoch: 2026-09-21T21:28:45.637824Z

Period
97.30 min
Inclination
51.8980°
Eccentricity
0.0001089
Mean motion
14.79938064 rev/d
Perigee alt
628.8 km
Apogee alt
630.3 km
Semi-major
7,007.7 km
B*
2.6379e-4
RAAN
95.5563°
Arg perigee
116.8606°
Mean anomaly
243.2468°
Rev number
6,898

§ Raw data

KUIPER-000401 64501U 25134B   26264.89497266  .00001791  00000+0  26379-3 0  99992 64501  51.8980  95.5563 0001089 116.8606 243.2468 14.79938064 68989

JSON: /api/v1/satellites/64501 · /tle

For live sub-satellite position, see the globe view (requires WebGL).

§ Visibility from observer

Set your observer location to see the next 7 days of passes ≥ 10°. The values pass through the URL so the page stays shareable.

No JS? Fill the form by hand. The geolocation button needs JavaScript.